Probability
68 48 10 3 0 0 0 0 0 0 0 0 0 0 0 0 0 0 0 3 6 10 26 39 39 35 32 35 32 26 29 32 35 32 32 32 26 29 32 32 29 29 39 42 45 45 45 48 48
42 26 3 0 0 0 0 0 0 0 0 0 0 0 0 0 0 0 3 6 10 13 29 35 39 39 35 39 29 39 29 26 32 32 26 29 29 29 29 29 29 32 35 42 39 42 42 48 58
32 13 0 0 0 0 0 0 0 0 0 0 0 0 0 0 0 3 3 13 10 6 19 32 35 39 42 42 29 32 26 26 26 26 26 29 29 29 23 26 29 29 32 42 39 42 45 42 55
13 0 0 0 0 0 0 0 0 0 0 0 0 0 0 0 3 3 6 10 10 10 23 32 39 35 35 39 35 29 32 29 23 26 26 26 29 23 23 19 23 26 26 32 39 39 45 45 45
0 0 0 0 0 0 0 0 0 0 0 0 0 0 0 6 0 6 10 13 13 10 19 32 42 45 48 35 39 39 35 32 26 23 23 32 26 26 32 23 19 23 26 26 32 45 45 42 23
0 0 0 0 0 0 0 0 0 0 0 0 0 0 0 3 3 3 6 6 6 6 13 35 48 52 48 45 48 42 39 32 32 29 35 29 35 26 19 16 19 19 13 13 26 45 29 29 29
0 0 0 0 0 0 0 0 0 0 0 0 0 0 0 6 3 3 3 3 6 6 10 13 29 32 48 55 45 35 35 35 32 32 32 35 39 35 23 16 16 16 13 16 23 32 19 26 29
0 0 0 0 0 0 0 0 0 0 0 0 0 0 0 3 3 3 3 3 6 10 10 6 13 13 16 19 48 45 35 26 29 32 26 32 29 23 23 16 19 10 3 6 16 26 23 23 35
0 0 0 0 0 0 0 0 0 0 0 0 0 0 0 6 3 3 3 6 3 3 3 6 10 10 10 10 19 16 26 26 19 19 26 23 10 3 6 6 19 23 13 19 13 23 16 13 10
0 0 0 0 0 0 0 0 0 0 0 0 0 0 6 3 3 3 3 3 3 3 3 6 10 10 10 10 10 10 10 10 10 6 6 3 3 3 6 6 13 13 10 19 19 16 6 3 0
0 0 0 0 0 0 0 0 0 0 0 0 0 3 3 6 3 3 3 3 3 3 3 3 6 10 10 6 6 6 10 10 10 6 3 3 3 3 3 3 6 6 6 3 0 3 3 0 0
0 0 0 0 0 0 0 0 0 0 0 0 0 3 3 3 3 3 3 3 3 3 3 3 6 10 6 6 6 6 6 3 3 3 3 3 0 3 3 3 0 0 0 0 0 0 0 0 0
0 0 0 0 0 0 0 0 0 0 0 0 0 3 3 3 0 0 3 3 3 3 3 3 6 10 10 6 6 6 6 3 3 0 0 0 0 0 0 3 0 0 0 0 0 0 0 0 0
0 0 0 0 0 0 0 0 0 0 0 0 3 3 3 3 3 0 0 3 3 0 0 0 6 6 10 3 3 3 3 3 3 0 0 0 0 0 0 0 0 0 0 0 0 0 0 0 0
0 0 0 0 0 0 0 0 0 0 0 3 3 3 3 3 3 3 3 3 3 0 0 0 3 6 6 6 3 3 3 3 3 3 0 0 0 0 0 0 0 0 0 0 0 0 0 0 0
0 0 0 0 0 0 0 0 0 0 0 0 3 6 6 6 3 3 3 3 3 3 3 3 3 3 3 6 3 3 3 3 3 0 0 0 0 0 0 0 0 0 0 0 0 0 0 0 0
0 0 0 0 0 0 0 0 0 3 3 0 3 3 3 6 6 3 3 3 3 3 6 6 3 6 6 3 3 3 3 0 0 0 0 0 0 0 0 0 0 0 0 0 0 0 0 0 0
0 0 0 0 0 0 0 0 0 0 3 3 0 3 3 3 3 3 3 3 3 3 6 6 3 3 3 0 3 3 3 3 0 0 0 0 0 0 0 0 0 0 0 0 0 0 0 0 0
0 0 0 0 0 0 0 0 0 0 3 3 3 0 3 3 3 3 3 3 3 0 0 6 3 0 0 3 3 3 3 3 3 0 0 0 0 0 0 0 0 0 0 0 0 0 0 0 0
0 0 0 0 0 0 0 0 0 0 3 3 3 3 3 3 3 3 3 3 0 0 0 3 0 0 0 0 3 3 3 3 3 3 0 0 0 0 0 0 0 0 0 0 0 0 0 0 0
0 0 0 0 0 0 0 0 0 0 0 3 3 3 3 3 3 3 3 0 0 0 0 0 0 0 0 0 3 3 0 0 3 0 0 0 0 0 0 0 0 0 0 0 0 0 0 0 0
0 0 0 0 0 0 0 0 0 0 0 0 3 3 3 3 3 3 3 0 0 0 0 0 0 0 0 3 3 3 3 3 3 0 0 0 0 0 0 0 0 0 0 0 0 0 0 0 0
0 0 0 0 0 0 0 0 0 0 0 0 0 3 3 3 3 3 3 3 0 0 0 0 0 0 0 0 0 0 3 3 0 0 0 0 0 0 0 0 0 0 0 0 0 0 0 0 0
0 0 0 0 0 0 0 0 0 0 0 0 0 3 3 3 3 3 3 3 0 0 0 0 0 0 0 0 0 0 0 0 0 0 0 0 0 0 0 0 0 0 0 0 0 0 0 0 0
0 0 0 0 0 0 0 0 0 0 0 0 0 0 3 3 3 3 3 3 0 0 0 0 0 0 0 0 0 0 0 0 0 0 0 0 0 0 0 0 0 0 0 0 0 0 0 0 0
0 0 0 0 0 0 0 0 0 0 0 0 0 0 0 0 3 3 3 3 3 0 0 0 0 0 0 0 0 0 0 0 0 0 0 0 0 0 0 0 0 0 0 0 0 0 0 0 0
0 0 0 0 0 0 0 0 0 0 0 0 0 0 0 0 0 3 3 3 3 3 0 0 0 0 0 0 0 0 0 0 0 0 0 0 0 0 0 0 0 0 0 0 0 0 0 0 0
0 0 0 0 0 0 0 0 0 0 0 0 0 0 0 0 0 0 3 3 3 3 3 0 0 0 0 0 0 0 0 0 0 0 0 0 0 0 0 0 0 0 0 0 0 0 0 0 0
0 0 0 0 0 0 0 0 0 0 0 0 0 0 0 0 0 0 0 3 3 3 3 3 0 0 0 0 0 0 0 0 0 0 0 0 0 0 0 0 0 0 0 0 0 0 0 0 0
0 0 0 0 0 0 0 0 0 0 0 0 0 0 0 0 0 0 0 0 3 3 3 3 3 0 0 0 0 0 0 0 0 0 0 0 0 0 0 0 0 0 0 0 0 0 0 0 0
Height
5874 5873 5874 5874 5874 5873 5872 5872 5871 5870 5870 5869 5868 5868 5867 5866 5867 5869 5866 5864 5864 5863 5863 5863 5862 5861 5861 5860 5860 5859 5859 5859 5859 5858 5858 5858 5858 5859 5859 5859 5859 5860 5860 5860 5861 5861 5861 5861 5861
5874 5874 5875 5874 5873 5873 5873 5872 5871 5870 5870 5869 5868 5868 5867 5866 5866 5865 5864 5864 5864 5863 5862 5862 5861 5861 5860 5859 5859 5858 5858 5858 5857 5857 5857 5857 5857 5857 5857 5857 5858 5858 5858 5859 5859 5859 5859 5860 5860
5874 5874 5875 5874 5873 5873 5873 5872 5871 5870 5869 5869 5868 5868 5867 5866 5866 5865 5864 5864 5863 5862 5862 5861 5860 5860 5859 5858 5858 5857 5857 5856 5856 5856 5856 5855 5855 5855 5856 5856 5856 5856 5857 5857 5857 5857 5858 5858 5858
5874 5874 5874 5874 5873 5873 5872 5871 5871 5870 5869 5869 5868 5868 5867 5866 5865 5865 5864 5863 5862 5862 5861 5860 5859 5858 5858 5857 5857 5856 5855 5855 5855 5854 5854 5854 5854 5854 5854 5854 5854 5855 5855 5855 5855 5855 5856 5856 5857
5874 5874 5874 5873 5872 5872 5872 5871 5870 5870 5869 5868 5868 5867 5866 5866 5865 5864 5863 5863 5862 5861 5860 5859 5858 5857 5857 5856 5855 5855 5854 5854 5853 5853 5853 5852 5852 5852 5852 5852 5853 5853 5853 5853 5853 5853 5854 5854 5854
5874 5874 5873 5873 5872 5872 5871 5870 5870 5869 5869 5868 5868 5867 5866 5866 5864 5864 5863 5862 5861 5860 5859 5858 5857 5856 5855 5855 5854 5853 5853 5852 5852 5851 5851 5851 5850 5850 5850 5850 5851 5851 5851 5851 5851 5852 5852 5852 5852
5874 5873 5873 5872 5872 5871 5871 5870 5869 5869 5868 5868 5867 5867 5866 5865 5864 5863 5862 5861 5860 5859 5858 5857 5856 5855 5854 5853 5853 5852 5851 5851 5850 5850 5849 5849 5849 5849 5849 5849 5849 5849 5849 5849 5849 5850 5850 5850 5850
5873 5874 5872 5872 5871 5871 5870 5869 5869 5868 5868 5867 5867 5866 5865 5864 5863 5862 5861 5860 5859 5858 5857 5856 5855 5854 5853 5852 5851 5851 5850 5849 5849 5848 5848 5847 5847 5847 5847 5846 5847 5847 5847 5847 5847 5847 5847 5848 5848
5873 5874 5872 5871 5871 5870 5870 5869 5868 5868 5867 5866 5866 5865 5864 5863 5862 5861 5860 5859 5858 5857 5856 5855 5854 5853 5852 5851 5850 5849 5848 5848 5847 5846 5846 5846 5845 5845 5845 5844 5845 5845 5845 5845 5845 5845 5845 5845 5846
5872 5872 5872 5871 5870 5870 5869 5868 5868 5867 5866 5865 5864 5864 5863 5862 5861 5860 5859 5858 5857 5856 5855 5854 5852 5851 5850 5849 5849 5848 5847 5846 5845 5845 5844 5844 5843 5843 5843 5843 5843 5843 5843 5843 5843 5843 5843 5843 5843
5871 5871 5871 5870 5869 5869 5868 5867 5867 5866 5865 5864 5863 5863 5862 5861 5860 5859 5858 5857 5856 5855 5854 5852 5851 5850 5849 5848 5847 5846 5845 5844 5844 5843 5842 5842 5841 5841 5841 5841 5841 5841 5841 5841 5840 5841 5841 5841 5841
5870 5870 5870 5869 5868 5868 5867 5866 5866 5865 5864 5863 5862 5861 5860 5859 5858 5857 5856 5855 5854 5853 5852 5851 5849 5848 5847 5846 5845 5844 5843 5843 5842 5841 5841 5840 5840 5839 5839 5839 5839 5839 5838 5838 5838 5838 5839 5839 5839
5869 5869 5868 5868 5867 5866 5866 5865 5865 5863 5862 5861 5860 5859 5859 5858 5857 5856 5855 5854 5853 5852 5850 5849 5848 5847 5846 5845 5844 5843 5842 5841 5840 5839 5839 5838 5838 5837 5837 5837 5837 5837 5836 5836 5836 5836 5836 5836 5836
5868 5867 5867 5866 5866 5865 5865 5864 5863 5862 5861 5860 5859 5858 5857 5856 5855 5854 5853 5852 5851 5850 5849 5847 5846 5845 5844 5843 5842 5841 5840 5839 5838 5837 5836 5836 5835 5835 5835 5835 5835 5835 5834 5834 5834 5834 5834 5834 5834
5866 5866 5866 5865 5864 5863 5863 5862 5861 5860 5859 5858 5857 5856 5855 5854 5853 5852 5851 5850 5849 5848 5847 5846 5844 5843 5842 5841 5840 5839 5837 5836 5836 5835 5834 5833 5833 5833 5833 5833 5833 5833 5832 5832 5832 5832 5832 5832 5832
5864 5864 5864 5863 5862 5861 5862 5860 5859 5857 5857 5856 5855 5854 5853 5852 5851 5850 5849 5848 5847 5846 5845 5844 5843 5841 5840 5839 5838 5837 5835 5834 5833 5832 5832 5831 5831 5830 5830 5830 5831 5831 5830 5830 5830 5830 5830 5830 5830
5862 5862 5861 5861 5860 5859 5859 5858 5856 5855 5854 5854 5853 5852 5851 5850 5849 5848 5847 5846 5845 5844 5843 5842 5841 5839 5838 5837 5836 5835 5833 5832 5831 5830 5829 5828 5828 5828 5828 5828 5828 5828 5828 5828 5828 5828 5828 5828 5828
5860 5859 5859 5858 5857 5856 5855 5855 5854 5853 5852 5851 5851 5850 5849 5848 5847 5846 5845 5844 5843 5842 5841 5840 5839 5837 5836 5835 5833 5832 5831 5829 5828 5827 5826 5826 5826 5825 5825 5825 5825 5826 5826 5826 5826 5826 5825 5825 5825
5857 5857 5856 5855 5854 5853 5853 5852 5851 5850 5849 5849 5848 5847 5846 5845 5844 5843 5842 5841 5840 5839 5838 5837 5836 5835 5833 5832 5831 5829 5828 5827 5826 5825 5824 5823 5823 5823 5822 5822 5823 5823 5823 5823 5823 5823 5823 5823 5823
5855 5854 5853 5853 5851 5850 5850 5849 5848 5847 5846 5846 5845 5844 5843 5842 5841 5840 5839 5838 5837 5837 5836 5835 5834 5832 5831 5829 5828 5827 5826 5824 5823 5822 5821 5821 5820 5820 5820 5820 5820 5820 5820 5820 5820 5820 5820 5820 5820
5852 5851 5851 5850 5849 5848 5847 5847 5846 5845 5844 5843 5842 5841 5840 5839 5838 5837 5836 5835 5834 5834 5833 5832 5831 5829 5828 5827 5825 5824 5823 5821 5820 5819 5819 5818 5817 5817 5817 5817 5817 5817 5817 5817 5817 5817 5817 5817 5818
5849 5848 5847 5846 5846 5845 5845 5844 5844 5842 5841 5840 5839 5838 5837 5836 5835 5834 5833 5832 5831 5830 5830 5828 5827 5826 5825 5824 5822 5821 5820 5819 5817 5817 5816 5815 5815 5814 5814 5814 5814 5814 5814 5814 5814 5814 5814 5815 5815
5845 5845 5844 5843 5842 5842 5842 5841 5842 5840 5838 5838 5836 5835 5834 5833 5832 5831 5830 5829 5828 5827 5826 5825 5824 5822 5821 5820 5819 5818 5816 5815 5814 5813 5813 5812 5811 5811 5811 5811 5811 5811 5811 5811 5811 5811 5811 5812 5812
5842 5841 5841 5840 5839 5839 5839 5838 5838 5837 5836 5834 5833 5832 5830 5829 5828 5827 5826 5825 5824 5823 5822 5821 5820 5819 5818 5816 5815 5814 5813 5812 5811 5810 5809 5808 5808 5808 5808 5808 5808 5808 5808 5808 5808 5808 5808 5809 5809
5838 5838 5837 5836 5836 5836 5835 5834 5835 5833 5832 5831 5830 5828 5827 5826 5825 5824 5823 5821 5820 5819 5818 5818 5817 5816 5814 5813 5811 5810 5809 5808 5807 5806 5805 5805 5805 5804 5804 5804 5804 5804 5804 5804 5805 5805 5805 5805 5806
5834 5834 5834 5833 5832 5832 5831 5830 5831 5830 5828 5827 5826 5824 5823 5822 5821 5819 5818 5817 5816 5815 5814 5813 5812 5811 5810 5809 5807 5806 5805 5804 5803 5802 5801 5801 5801 5800 5800 5800 5800 5800 5800 5800 5801 5801 5801 5801 5802
5830 5830 5830 5829 5828 5828 5827 5827 5827 5825 5824 5823 5822 5820 5819 5818 5816 5815 5814 5813 5812 5811 5810 5809 5808 5807 5806 5805 5803 5802 5801 5800 5799 5798 5797 5796 5796 5796 5796 5795 5795 5795 5796 5796 5796 5797 5797 5797 5798
5827 5826 5825 5825 5824 5823 5823 5823 5822 5821 5820 5819 5817 5816 5814 5813 5812 5811 5809 5808 5808 5806 5805 5804 5803 5802 5801 5800 5798 5797 5796 5795 5794 5793 5792 5792 5791 5791 5791 5791 5791 5791 5791 5791 5791 5792 5792 5793 5793
5822 5822 5821 5820 5819 5819 5818 5821 5818 5816 5815 5814 5813 5811 5810 5809 5807 5806 5805 5804 5803 5801 5800 5799 5798 5797 5795 5794 5793 5792 5791 5790 5789 5789 5788 5787 5786 5786 5786 5786 5786 5786 5786 5786 5786 5787 5787 5788 5788
5817 5817 5816 5816 5815 5814 5813 5817 5813 5811 5809 5808 5807 5806 5805 5804 5802 5801 5800 5799 5797 5796 5795 5794 5792 5791 5790 5789 5788 5787 5786 5784 5784 5783 5782 5782 5781 5781 5781 5781 5781 5781 5780 5781 5781 5781 5781 5782 5783
Wind_Speed
3 3 3 3 3 3 4 4 4 4 4 5 5 5 5 5 4 5 5 6 6 5 5 5 6 6 6 6 6 6 6 6 6 7 7 7 6 6 6 7 7 6 6 6 7 7 7 6 7
3 4 4 4 4 4 4 5 5 4 4 5 5 5 5 5 5 5 5 6 6 6 6 6 6 6 6 6 6 7 7 7 7 7 7 7 7 7 7 8 7 7 7 7 8 8 8 8 7
4 4 5 5 4 4 4 4 4 4 4 5 5 5 5 5 5 5 5 6 6 6 6 6 6 7 7 7 7 7 7 7 7 7 7 8 8 8 8 8 7 8 8 8 8 8 9 8 8
5 5 5 5 5 5 4 4 4 4 4 4 5 5 5 6 5 5 6 6 6 6 6 6 7 7 7 7 7 7 7 7 7 7 8 8 8 8 8 8 8 8 8 8 8 8 8 9 9
5 5 4 4 5 4 4 4 4 4 4 5 5 5 5 5 6 6 7 7 7 7 7 7 7 7 7 7 7 7 7 7 7 8 8 8 8 7 7 7 8 8 8 8 8 8 8 9 9
5 5 4 5 5 5 5 4 4 4 4 4 5 5 5 5 6 6 7 8 8 8 8 8 7 7 7 7 8 7 7 7 8 8 8 8 8 7 7 7 7 8 8 8 9 9 8 9 9
6 6 6 6 6 5 5 5 4 4 4 5 6 6 6 6 6 7 7 7 8 8 8 8 8 7 7 7 8 7 7 7 8 8 8 8 8 8 8 8 8 8 8 9 9 9 9 9 9
6 6 6 6 5 5 5 4 4 5 5 6 6 6 6 6 7 7 7 7 7 7 8 8 8 7 7 7 7 7 8 8 8 8 8 8 8 8 8 8 8 9 9 9 10 10 10 10 10
6 5 5 6 6 6 5 5 4 4 5 6 6 6 7 7 7 7 7 8 7 7 8 8 8 7 7 7 7 8 8 8 8 8 8 8 8 9 8 8 8 8 9 9 10 10 10 10 10
6 5 6 6 6 6 6 6 5 5 5 6 7 7 7 7 7 7 7 8 8 8 8 8 8 7 8 8 8 8 8 8 8 8 8 9 9 8 8 8 8 8 9 10 10 10 10 10 10
6 6 6 7 7 6 6 6 6 6 6 6 7 7 6 6 6 7 7 8 8 8 8 8 8 8 8 8 8 9 9 9 9 9 8 8 8 8 8 8 8 9 9 9 9 10 10 10 10
7 7 7 7 7 6 7 7 7 7 7 7 7 7 7 6 7 7 7 8 8 8 9 9 9 8 9 9 9 9 9 9 9 9 9 9 8 8 9 8 8 8 9 9 9 9 10 10 10
8 8 8 8 8 7 7 8 8 8 8 7 7 7 7 7 7 7 7 8 8 8 9 9 9 8 8 9 9 9 9 9 9 9 9 9 9 8 8 8 8 8 8 8 9 9 9 10 10
9 9 9 9 8 8 8 8 8 8 8 8 8 7 7 8 8 8 8 8 8 8 9 8 8 8 8 9 10 10 9 9 9 9 9 9 8 8 8 8 7 7 7 8 9 8 9 10 10
9 9 10 9 9 9 9 8 8 9 9 9 9 9 9 9 9 9 9 8 8 9 9 9 9 9 9 9 10 10 10 9 9 9 9 9 8 8 8 8 8 8 7 7 8 8 9 10 9
10 10 10 10 10 9 9 9 9 9 9 9 9 10 10 10 10 10 9 9 9 9 10 10 10 10 10 10 10 10 10 10 10 10 9 9 9 8 8 8 8 9 9 8 9 8 8 9 9
11 11 11 11 10 10 10 10 9 9 9 9 10 10 10 10 10 10 10 10 10 10 10 10 10 10 10 10 11 11 11 11 10 10 9 9 9 9 9 9 9 10 9 9 9 9 9 9 9
11 11 12 11 11 11 11 11 11 10 10 10 11 11 10 10 10 10 10 10 10 10 10 10 10 11 11 11 11 12 11 11 10 10 10 9 9 10 10 10 10 10 10 10 10 9 10 10 10
12 12 12 12 12 12 12 11 11 11 11 11 11 11 11 10 10 10 10 10 11 11 10 10 11 12 12 11 12 12 12 11 11 10 10 9 9 9 9 9 10 10 11 11 11 10 10 10 11
13 13 13 13 13 12 12 11 11 11 10 11 11 12 12 11 11 10 10 11 11 11 11 12 12 12 12 12 12 13 12 11 11 11 10 10 9 9 8 9 9 10 11 12 11 11 11 12 12
14 14 13 13 12 12 12 11 10 11 11 11 12 12 12 12 12 11 11 12 12 12 12 13 13 13 13 13 13 13 12 12 11 11 11 11 10 9 9 10 10 11 11 11 11 12 12 12 12
14 14 14 14 13 12 12 12 10 11 12 11 11 12 12 13 13 12 12 12 12 12 13 13 13 13 13 13 13 13 12 12 12 11 12 11 10 10 10 10 10 11 11 11 12 12 11 11 12
15 15 15 14 14 13 13 13 12 12 12 12 12 13 13 14 14 14 14 13 13 13 13 14 13 13 13 13 13 13 13 13 12 12 12 12 11 11 10 10 11 11 11 11 11 11 11 12 13
16 16 16 15 15 14 13 14 13 13 13 13 13 14 14 14 14 14 14 14 14 14 14 14 13 13 13 13 13 13 13 13 13 13 13 12 12 11 12 12 12 12 12 12 12 12 12 12 12
16 16 16 16 15 15 14 15 14 14 14 14 14 15 15 15 15 15 15 14 14 14 14 14 14 14 15 15 15 14 14 14 14 13 13 12 12 12 13 13 13 13 13 13 13 12 12 12 12
16 16 16 16 16 16 15 15 15 16 15 15 15 15 16 15 16 16 15 15 14 14 14 15 15 15 16 16 15 15 15 15 15 14 14 13 13 13 14 14 14 14 14 14 14 14 14 14 13
16 16 16 17 17 17 17 17 16 16 16 16 16 17 17 16 16 16 16 15 15 15 15 16 16 17 17 16 16 16 16 16 15 15 15 15 14 14 15 14 15 15 15 15 16 15 15 15 15
17 16 17 17 18 18 17 17 17 16 17 17 18 18 18 17 16 16 17 17 17 16 16 16 17 18 17 17 17 17 17 17 16 16 16 16 15 15 16 16 16 16 17 17 17 17 17 16 16
17 17 18 18 19 20 19 18 18 18 18 18 18 18 18 18 17 17 17 18 18 17 17 18 17 17 18 18 18 17 17 17 17 17 17 16 16 17 17 18 18 17 17 18 18 18 18 18 18
19 19 19 20 20 20 21 19 19 19 18 18 18 18 18 18 17 17 18 18 18 18 18 18 18 18 18 18 18 17 17 18 17 17 17 17 18 18 18 18 19 19 19 19 20 20 20 19 19
Wind_Direction
355 358 356 346 343 347 353 349 351 356 352 347 347 347 348 346 348 347 348 348 344 335 325 322 321 321 318 316 309 301 297 296 295 298 294 294 289 281 276 274 273 269 266 265 264 267 265 265 264
346 345 342 339 336 344 342 340 347 346 341 343 346 348 355 358 357 354 348 343 339 334 328 326 323 323 321 316 309 302 298 297 297 297 297 299 295 290 282 276 268 266 265 267 267 267 264 263 263
334 335 335 337 335 336 331 330 337 333 335 342 346 347 347 349 356 351 347 341 339 335 330 326 324 323 319 315 308 303 302 299 295 293 292 293 289 286 284 280 272 264 265 267 268 269 263 261 259
329 328 328 334 337 329 323 324 329 331 335 342 344 344 339 339 342 343 340 341 339 335 331 330 322 319 317 316 311 306 302 300 294 292 291 289 286 284 282 281 277 269 269 269 268 268 263 259 260
332 329 331 335 333 324 318 318 321 324 336 343 342 340 337 337 335 333 330 330 329 327 327 327 323 318 314 315 314 306 302 297 294 293 292 290 290 288 284 279 274 271 270 268 266 267 262 259 261
327 327 332 327 321 315 313 316 319 318 327 338 340 337 333 334 331 326 325 324 320 322 324 322 322 319 312 310 311 308 304 301 297 295 292 289 288 287 283 279 275 268 264 262 265 266 262 260 260
321 329 330 326 321 320 320 321 324 322 326 330 332 327 326 329 325 320 320 319 317 319 321 321 321 317 312 309 310 310 307 304 299 296 294 289 288 287 283 278 272 266 261 261 264 265 263 262 259
320 323 329 327 328 334 336 332 332 326 324 321 323 324 323 324 323 319 317 316 317 319 320 319 317 314 315 314 311 309 308 304 299 296 295 293 288 285 284 279 271 266 267 267 264 264 265 265 261
323 319 328 330 332 335 337 337 333 327 324 319 323 326 322 320 320 320 320 319 321 324 322 319 315 310 311 313 313 310 307 306 301 295 295 292 288 286 283 278 273 271 270 268 262 262 265 266 263
319 312 318 321 328 328 330 332 329 327 328 325 326 326 323 320 320 321 323 323 324 325 323 319 316 315 313 312 310 307 304 302 297 293 292 288 286 283 281 276 275 274 273 267 264 265 267 268 266
313 310 309 313 320 322 323 324 322 319 320 319 319 320 319 320 323 323 325 325 322 322 324 323 321 319 317 314 310 307 304 299 295 291 288 286 286 281 279 274 271 273 272 268 267 266 266 265 265
307 306 305 305 310 313 316 315 314 314 314 314 314 317 317 321 325 327 326 325 326 322 320 321 318 318 315 313 310 311 307 302 297 293 291 288 288 282 278 276 274 273 269 266 268 267 265 264 262
303 301 299 297 299 305 311 308 311 311 309 308 312 315 316 317 320 321 322 320 321 324 323 322 318 317 315 311 311 311 307 302 299 296 293 291 287 285 279 275 273 272 269 265 265 265 262 262 260
299 295 296 298 297 299 303 306 305 305 304 304 308 311 313 314 314 313 315 317 320 323 325 323 320 318 315 311 309 310 309 305 302 298 293 290 286 283 278 273 270 269 270 266 262 265 265 261 261
297 295 295 298 297 296 296 297 298 299 300 301 304 307 309 311 310 311 311 311 314 319 319 323 322 320 317 313 309 308 307 305 303 298 292 288 284 281 278 274 270 269 272 271 265 264 267 264 260
295 294 293 292 294 296 294 294 294 295 298 299 302 305 306 307 307 307 306 308 309 311 311 313 315 315 314 312 309 305 306 304 300 296 289 286 281 278 272 271 267 270 274 272 269 268 269 265 258
294 294 292 290 293 295 296 297 294 291 293 294 298 301 303 305 304 303 301 302 304 305 306 308 312 314 312 310 308 305 304 304 299 294 290 283 278 274 269 267 267 268 271 272 269 266 265 265 259
292 293 292 292 293 292 295 296 293 291 291 291 294 295 297 301 300 299 298 299 301 301 302 305 309 311 312 309 307 305 305 304 300 293 289 285 280 273 267 265 263 267 270 271 271 270 267 267 264
292 294 296 294 291 289 290 290 292 292 294 294 293 293 292 295 296 295 295 298 299 300 299 301 305 309 311 308 308 306 305 303 298 294 290 285 282 277 270 262 261 266 270 268 269 270 268 267 266
289 291 293 291 288 286 286 288 291 290 293 295 292 289 288 290 293 292 292 291 291 294 295 297 299 302 306 308 307 306 303 301 297 293 290 287 282 278 269 264 264 266 267 265 267 267 268 267 265
288 289 289 287 286 286 288 289 291 291 293 293 292 289 289 292 294 291 289 288 287 291 294 297 296 299 301 303 304 305 300 300 297 296 291 287 283 274 266 263 264 268 269 268 266 265 263 263 261
285 287 286 283 283 284 286 289 291 294 295 292 292 290 288 290 291 291 290 288 288 291 294 296 296 296 300 301 299 299 300 298 295 293 290 287 282 277 272 269 269 268 269 268 265 265 263 262 261
281 283 285 285 283 284 286 289 291 293 294 294 293 292 289 288 290 290 290 289 291 291 292 293 295 295 298 301 298 294 294 294 290 288 287 286 281 278 274 273 273 270 267 265 267 265 265 263 263
280 282 282 281 281 283 287 288 288 292 295 295 293 294 291 288 289 291 292 291 289 291 290 290 293 293 296 300 298 295 293 293 291 287 286 282 277 275 274 272 274 272 268 264 267 267 265 263 262
278 280 280 279 279 283 287 286 287 291 294 294 294 294 292 291 290 292 293 292 291 292 292 288 291 292 294 297 297 296 293 289 289 286 283 279 274 271 272 271 271 271 269 266 266 266 266 263 259
276 277 278 279 280 282 283 286 290 291 294 294 293 293 295 292 291 290 292 292 290 290 290 289 290 290 289 293 295 294 292 288 288 285 282 278 273 272 272 269 268 268 268 265 263 263 265 264 260
275 275 276 278 280 283 284 286 288 291 292 292 294 296 297 294 291 289 291 291 290 289 290 291 290 289 287 287 289 290 289 287 286 287 285 281 277 274 273 273 268 267 265 262 263 265 265 264 263
274 275 276 278 281 283 284 287 288 288 288 290 292 294 295 294 290 289 289 290 290 289 290 291 292 290 287 285 287 287 287 285 285 286 286 282 276 271 272 273 275 271 265 263 262 264 264 263 263
273 273 275 278 281 284 285 287 289 289 288 290 292 292 293 294 289 286 286 287 289 289 289 290 291 289 288 288 286 285 284 281 282 282 282 280 275 271 271 271 273 273 268 266 264 264 264 263 263
272 272 274 276 280 282 285 288 289 289 289 290 291 290 291 290 287 285 285 286 287 288 289 289 288 289 288 288 288 287 283 280 280 280 280 278 276 274 273 272 272 273 272 268 266 265 263 262 261